Simultaneous Nadir Overpasses (SNOs) Predictions

Prediction of SNOs near US between AQUA and NPP Satellite Orbit:

Table of predicted SNOs near US for the next 10.0 days since TLE Epoch: 1/5/2019
Index Date (AQUA) Time (AQUA) AQUA Lat,Lon Date (NPP) Time (NPP) NPP Lat,Lon Distance(km) Time Diff (sec)
1 01/06/2019 08:35:05 20.00,-101.87 01/06/2019 08:26:45 18.49,-102.52 181.94 500
2 01/06/2019 10:11:52 27.54,-124.77 01/06/2019 10:05:37 27.68,-125.57 80.47 375
3 01/09/2019 07:18:46 49.93, -75.96 01/09/2019 07:20:30 50.40, -78.26 171.99 104
4 01/09/2019 08:57:39 49.94,-100.68 01/09/2019 09:01:58 50.51,-103.58 216.40 259
5 01/11/2019 18:16:56 49.95, -80.17 01/11/2019 18:10:46 49.63, -81.80 122.14 370
6 01/11/2019 19:55:49 49.94,-104.89 01/11/2019 19:52:14 49.52,-107.12 167.42 215
7 01/11/2019 21:31:00 36.71,-124.99 01/11/2019 21:29:54 36.20,-127.65 244.37 66
8 01/14/2019 09:23:44 22.88,-113.55 01/14/2019 09:16:11 22.97,-114.10 57.53 453




NCC Satellite Simultaneous Nadir Overpasses (SNOs) Prediction Service
